Time,TemperatureF,DewpointF,PressureIn,WindDirection,WindDirectionDegrees,WindSpeedMPH,WindSpeedGustMPH,Humidity,HourlyPrecipIn,Conditions,Clouds,dailyrainin,SoftwareType,DateUTC
2013-05-08 00:02:00,59.0,46.0,30.01,NNE,28,0.0,0.0,62,-99.99,,,0.00,1-wire,2013-05-08 05:02:00,
2013-05-08 00:07:00,58.8,46.2,30.01,NNE,21,0.0,0.0,63,-99.99,,,0.00,1-wire,2013-05-08 05:07:00,
2013-05-08 00:12:00,58.9,46.4,30.01,NNE,21,0.0,0.0,63,-99.99,,,0.00,1-wire,2013-05-08 05:12:00,
2013-05-08 00:18:00,58.7,46.3,30.01,NNE,21,0.0,0.0,63,-99.99,,,0.00,1-wire,2013-05-08 05:18:00,
2013-05-08 00:23:00,58.7,46.4,30.01,NNE,24,0.0,0.0,64,-99.99,,,0.00,1-wire,2013-05-08 05:23:00,
2013-05-08 00:29:00,58.7,46.6,30.01,NNE,24,0.0,0.0,64,-99.99,,,0.00,1-wire,2013-05-08 05:29:00,
2013-05-08 00:34:00,58.6,46.6,30.01,NNE,24,0.0,0.0,64,-99.99,,,0.00,1-wire,2013-05-08 05:34:00,
2013-05-08 00:39:00,58.4,46.5,30.01,NNE,17,0.0,0.0,64,-99.99,,,0.00,1-wire,2013-05-08 05:39:00,
2013-05-08 00:45:00,58.2,46.4,30.01,NNE,17,0.0,0.0,65,-99.99,,,0.00,1-wire,2013-05-08 05:45:00,
2013-05-08 00:50:00,58.2,46.5,30.01,NNE,17,0.0,0.0,65,-99.99,,,0.00,1-wire,2013-05-08 05:50:00,
2013-05-08 00:56:00,58.2,46.3,30.01,NNE,17,0.0,0.0,65,-99.99,,,0.00,1-wire,2013-05-08 05:56:00,
2013-05-08 01:01:00,58.1,46.7,30.01,NNE,17,0.0,0.0,66,-99.99,,,0.00,1-wire,2013-05-08 06:01:00,
2013-05-08 01:07:00,58.0,46.3,30.01,NNE,19,0.0,0.0,65,-99.99,,,0.00,1-wire,2013-05-08 06:07:00,
2013-05-08 01:12:00,57.8,46.7,30.01,NNE,19,0.0,0.0,66,-99.99,,,0.00,1-wire,2013-05-08 06:12:00,
2013-05-08 01:17:00,57.5,46.3,30.01,NNE,19,0.0,0.0,66,-99.99,,,0.00,1-wire,2013-05-08 06:17:00,
2013-05-08 01:22:00,57.3,46.1,30.01,NNE,17,0.0,0.0,66,-99.99,,,0.00,1-wire,2013-05-08 06:22:00,
2013-05-08 01:27:00,56.7,46.3,30.01,NNE,17,0.0,0.0,68,-99.99,,,0.00,1-wire,2013-05-08 06:27:00,
2013-05-08 01:33:00,56.9,46.6,30.01,NNE,17,0.0,0.0,68,-99.99,,,0.00,1-wire,2013-05-08 06:33:00,
2013-05-08 01:38:00,56.6,46.6,30.01,North,9,0.0,0.0,69,-99.99,,,0.00,1-wire,2013-05-08 06:38:00,
2013-05-08 01:43:00,56.3,46.5,30.01,North,9,0.0,0.0,70,-99.99,,,0.00,1-wire,2013-05-08 06:43:00,
2013-05-08 01:48:00,56.0,46.7,30.01,North,9,0.0,0.0,71,-99.99,,,0.00,1-wire,2013-05-08 06:48:00,
2013-05-08 01:53:00,55.9,46.4,30.00,North,352,0.0,0.0,70,-99.99,,,0.00,1-wire,2013-05-08 06:53:00,
2013-05-08 01:58:00,55.5,46.1,30.00,North,352,0.0,0.0,71,-99.99,,,0.00,1-wire,2013-05-08 06:58:00,
2013-05-08 02:03:00,55.6,46.0,30.00,North,352,0.0,0.0,70,-99.99,,,0.00,1-wire,2013-05-08 07:03:00,
2013-05-08 02:08:00,55.2,47.1,30.00,North,353,0.0,0.0,74,-99.99,,,0.00,1-wire,2013-05-08 07:08:00,
2013-05-08 02:13:00,55.4,46.1,30.00,North,353,0.0,0.0,71,-99.99,,,0.00,1-wire,2013-05-08 07:13:00,
2013-05-08 02:18:00,55.2,46.1,30.00,North,353,0.0,0.0,71,-99.99,,,0.00,1-wire,2013-05-08 07:18:00,
2013-05-08 02:23:00,55.2,46.1,30.00,North,357,0.0,0.0,71,-99.99,,,0.00,1-wire,2013-05-08 07:23:00,
2013-05-08 02:28:00,54.9,45.8,30.00,North,357,0.0,0.0,71,-99.99,,,0.00,1-wire,2013-05-08 07:28:00,
2013-05-08 02:33:00,55.2,46.1,30.00,North,357,0.0,0.0,71,-99.99,,,0.00,1-wire,2013-05-08 07:33:00,
2013-05-08 02:38:00,55.1,46.1,29.99,North,356,0.0,0.0,72,-99.99,,,0.00,1-wire,2013-05-08 07:38:00,
2013-05-08 02:43:00,54.9,45.8,30.00,North,356,0.0,0.0,71,-99.99,,,0.00,1-wire,2013-05-08 07:43:00,
2013-05-08 02:48:00,54.6,46.0,29.99,North,356,0.0,0.0,73,-99.99,,,0.00,1-wire,2013-05-08 07:48:00,
2013-05-08 02:53:00,54.5,46.1,30.00,North,357,0.0,0.0,73,-99.99,,,0.00,1-wire,2013-05-08 07:53:00,
2013-05-08 02:58:00,54.6,46.0,30.00,North,357,0.0,0.0,73,-99.99,,,0.00,1-wire,2013-05-08 07:58:00,
2013-05-08 03:03:00,54.4,45.9,30.00,North,357,0.0,0.0,73,-99.99,,,0.00,1-wire,2013-05-08 08:03:00,
2013-05-08 03:08:00,54.4,45.9,30.00,North,9,0.0,0.0,73,-99.99,,,0.00,1-wire,2013-05-08 08:08:00,
2013-05-08 03:13:00,53.9,45.6,30.00,North,9,0.0,0.0,74,-99.99,,,0.00,1-wire,2013-05-08 08:13:00,
2013-05-08 03:18:00,53.6,45.8,30.00,North,9,0.0,0.0,75,-99.99,,,0.00,1-wire,2013-05-08 08:18:00,
2013-05-08 03:23:00,53.6,45.8,30.00,NNE,13,0.0,0.0,75,-99.99,,,0.00,1-wire,2013-05-08 08:23:00,
2013-05-08 03:28:00,53.2,46.1,30.00,NNE,13,0.0,0.0,77,-99.99,,,0.00,1-wire,2013-05-08 08:28:00,
2013-05-08 03:34:00,53.3,45.8,30.01,NNE,13,0.0,0.0,76,-99.99,,,0.00,1-wire,2013-05-08 08:34:00,
2013-05-08 03:39:00,52.9,46.0,30.01,North,10,0.0,0.0,77,-99.99,,,0.00,1-wire,2013-05-08 08:39:00,
2013-05-08 03:45:00,53.2,45.9,30.01,North,10,0.0,0.0,76,-99.99,,,0.00,1-wire,2013-05-08 08:45:00,
2013-05-08 03:50:00,52.8,45.6,30.01,North,10,0.0,0.0,76,-99.99,,,0.00,1-wire,2013-05-08 08:50:00,
2013-05-08 03:56:00,52.7,45.6,30.01,NNE,16,0.0,0.0,77,-99.99,,,0.00,1-wire,2013-05-08 08:56:00,
2013-05-08 04:01:00,52.6,45.7,30.01,NNE,16,0.0,0.0,77,-99.99,,,0.00,1-wire,2013-05-08 09:01:00,
2013-05-08 04:06:00,52.6,45.7,30.01,NNE,18,0.0,0.0,77,-99.99,,,0.00,1-wire,2013-05-08 09:06:00,
2013-05-08 04:11:00,52.7,45.7,30.01,NNE,18,0.0,0.0,77,-99.99,,,0.00,1-wire,2013-05-08 09:11:00,
2013-05-08 04:16:00,52.3,45.5,30.01,NNE,18,0.0,0.0,78,-99.99,,,0.00,1-wire,2013-05-08 09:16:00,
2013-05-08 04:21:00,51.8,45.4,30.01,NNE,20,0.0,0.0,79,-99.99,,,0.00,1-wire,2013-05-08 09:21:00,
2013-05-08 04:26:00,51.8,45.4,30.01,NNE,20,0.0,0.0,79,-99.99,,,0.00,1-wire,2013-05-08 09:26:00,
2013-05-08 04:31:00,51.7,45.3,30.01,NNE,20,0.0,0.0,79,-99.99,,,0.00,1-wire,2013-05-08 09:31:00,
2013-05-08 04:36:00,51.7,45.3,30.01,NNE,20,0.0,0.0,79,-99.99,,,0.00,1-wire,2013-05-08 09:36:00,
2013-05-08 04:41:00,51.9,45.4,30.01,NNE,20,0.0,0.0,78,-99.99,,,0.00,1-wire,2013-05-08 09:41:00,
2013-05-08 04:46:00,51.5,45.4,30.01,NNE,20,0.0,0.0,80,-99.99,,,0.00,1-wire,2013-05-08 09:46:00,
2013-05-08 04:51:00,51.6,45.3,30.01,NNE,15,0.0,0.0,79,-99.99,,,0.00,1-wire,2013-05-08 09:51:00,
2013-05-08 04:56:00,51.3,45.1,30.01,NNE,15,0.0,0.0,79,-99.99,,,0.00,1-wire,2013-05-08 09:56:00,
2013-05-08 05:01:00,51.1,45.1,30.01,NNE,15,0.0,0.0,80,-99.99,,,0.00,1-wire,2013-05-08 10:01:00,
2013-05-08 05:06:00,51.2,45.2,30.01,NNE,20,0.0,0.0,80,-99.99,,,0.00,1-wire,2013-05-08 10:06:00,
2013-05-08 05:11:00,51.1,45.2,30.01,NNE,20,0.0,0.0,80,-99.99,,,0.00,1-wire,2013-05-08 10:11:00,
2013-05-08 05:16:00,51.1,45.3,30.01,NNE,20,0.0,0.0,80,-99.99,,,0.00,1-wire,2013-05-08 10:16:00,
2013-05-08 05:21:00,51.2,45.1,30.01,NNE,20,0.0,0.0,80,-99.99,,,0.00,1-wire,2013-05-08 10:21:00,
2013-05-08 05:26:00,51.2,45.1,30.01,NNE,20,0.0,0.0,80,-99.99,,,0.00,1-wire,2013-05-08 10:26:00,
2013-05-08 05:31:00,50.8,45.2,30.01,NNE,20,0.0,0.0,81,-99.99,,,0.00,1-wire,2013-05-08 10:31:00,
2013-05-08 05:36:00,51.1,45.3,30.01,NNE,21,0.0,0.0,80,-99.99,,,0.00,1-wire,2013-05-08 10:36:00,
2013-05-08 05:41:00,50.8,45.1,30.02,NNE,21,0.0,0.0,81,-99.99,,,0.00,1-wire,2013-05-08 10:41:00,
2013-05-08 05:46:00,50.6,45.0,30.02,NNE,21,0.0,0.0,81,-99.99,,,0.00,1-wire,2013-05-08 10:46:00,
2013-05-08 05:51:00,50.9,45.0,30.01,NNE,13,0.0,0.0,80,-99.99,,,0.00,1-wire,2013-05-08 10:51:00,
2013-05-08 05:56:00,50.8,44.9,30.02,NNE,13,0.0,0.0,80,-99.99,,,0.00,1-wire,2013-05-08 10:56:00,
2013-05-08 06:01:00,50.9,45.1,30.03,NNE,13,0.0,0.0,81,-99.99,,,0.00,1-wire,2013-05-08 11:01:00,
2013-05-08 06:07:00,50.7,45.3,30.03,North,11,0.0,0.0,82,-99.99,,,0.00,1-wire,2013-05-08 11:07:00,
2013-05-08 06:12:00,51.1,45.3,30.02,North,11,0.0,0.0,81,-99.99,,,0.00,1-wire,2013-05-08 11:12:00,
2013-05-08 06:17:00,51.0,45.2,30.03,North,11,0.0,0.0,80,-99.99,,,0.00,1-wire,2013-05-08 11:17:00,
2013-05-08 06:22:00,51.1,45.5,30.03,NNE,17,0.0,0.0,81,-99.99,,,0.00,1-wire,2013-05-08 11:22:00,
2013-05-08 06:27:00,51.1,45.3,30.03,NNE,17,0.0,0.0,81,-99.99,,,0.00,1-wire,2013-05-08 11:27:00,
2013-05-08 06:32:00,51.3,45.8,30.03,NNE,17,0.0,0.0,81,-99.99,,,0.00,1-wire,2013-05-08 11:32:00,
2013-05-08 06:37:00,51.4,45.9,30.03,NNE,18,0.0,0.0,81,-99.99,,,0.00,1-wire,2013-05-08 11:37:00,
2013-05-08 06:43:00,51.5,45.9,30.03,NNE,18,0.0,0.0,81,-99.99,,,0.00,1-wire,2013-05-08 11:43:00,
2013-05-08 06:48:00,51.8,46.2,30.03,NNE,18,0.0,0.0,81,-99.99,,,0.00,1-wire,2013-05-08 11:48:00,
2013-05-08 06:54:00,52.2,46.4,30.03,North,10,0.0,0.0,81,-99.99,,,0.00,1-wire,2013-05-08 11:54:00,
2013-05-08 06:59:00,52.8,46.9,30.03,North,10,0.0,0.0,81,-99.99,,,0.00,1-wire,2013-05-08 11:59:00,
2013-05-08 07:05:00,53.3,47.3,30.03,North,10,0.0,0.0,80,-99.99,,,0.00,1-wire,2013-05-08 12:05:00,
2013-05-08 07:11:00,53.6,47.4,30.03,NNE,16,0.0,0.0,80,-99.99,,,0.00,1-wire,2013-05-08 12:11:00,
2013-05-08 07:16:00,54.4,47.8,30.04,NNE,16,0.0,0.0,78,-99.99,,,0.00,1-wire,2013-05-08 12:16:00,
2013-05-08 07:22:00,54.9,47.3,30.04,North,9,0.0,0.0,75,-99.99,,,0.00,1-wire,2013-05-08 12:22:00,
2013-05-08 07:27:00,55.9,46.3,30.04,North,9,0.0,0.0,70,-99.99,,,0.00,1-wire,2013-05-08 12:27:00,
2013-05-08 07:32:00,56.9,46.7,30.04,North,9,0.0,0.0,69,-99.99,,,0.00,1-wire,2013-05-08 12:32:00,
2013-05-08 07:37:00,57.8,46.2,30.04,NNW,339,0.0,0.0,65,-99.99,,,0.00,1-wire,2013-05-08 12:37:00,
2013-05-08 07:42:00,58.7,46.1,30.04,NNW,339,0.0,3.0,63,-99.99,,,0.00,1-wire,2013-05-08 12:42:00,
2013-05-08 07:47:00,59.5,45.9,30.04,NNW,339,0.0,0.0,61,-99.99,,,0.00,1-wire,2013-05-08 12:47:00,
2013-05-08 07:53:00,60.4,46.2,30.04,North,356,1.0,3.0,59,-99.99,,,0.00,1-wire,2013-05-08 12:53:00,
2013-05-08 07:58:00,61.0,46.8,30.04,North,356,0.0,3.0,60,-99.99,,,0.00,1-wire,2013-05-08 12:58:00,
2013-05-08 08:03:00,61.5,46.4,30.04,North,356,0.0,3.0,58,-99.99,,,0.00,1-wire,2013-05-08 13:03:00,
2013-05-08 08:08:00,62.2,46.6,30.04,South,183,0.0,3.0,57,-99.99,,,0.00,1-wire,2013-05-08 13:08:00,
2013-05-08 08:14:00,63.0,46.8,30.04,South,183,1.0,3.0,56,-99.99,,,0.00,1-wire,2013-05-08 13:14:00,
2013-05-08 08:19:00,64.0,46.1,30.04,South,183,3.0,6.0,52,-99.99,,,0.00,1-wire,2013-05-08 13:19:00,
2013-05-08 08:24:00,64.5,47.0,30.04,South,177,0.0,0.0,53,-99.99,,,0.00,1-wire,2013-05-08 13:24:00,
2013-05-08 08:29:00,65.1,47.1,30.04,South,177,1.0,3.0,52,-99.99,,,0.00,1-wire,2013-05-08 13:29:00,
2013-05-08 08:34:00,65.9,46.2,30.04,South,177,0.0,3.0,49,-99.99,,,0.00,1-wire,2013-05-08 13:34:00,
2013-05-08 08:39:00,66.5,46.4,30.04,SSW,192,1.0,6.0,49,-99.99,,,0.00,1-wire,2013-05-08 13:39:00,
2013-05-08 08:44:00,66.7,46.0,30.04,SSW,192,1.0,3.0,47,-99.99,,,0.00,1-wire,2013-05-08 13:44:00,
2013-05-08 08:49:00,66.9,44.9,30.04,SSW,192,1.0,3.0,45,-99.99,,,0.00,1-wire,2013-05-08 13:49:00,
2013-05-08 08:54:00,67.6,45.6,30.04,SSW,196,1.0,3.0,45,-99.99,,,0.00,1-wire,2013-05-08 13:54:00,
2013-05-08 08:59:00,68.2,46.0,30.04,SSW,196,4.0,8.0,45,-99.99,,,0.00,1-wire,2013-05-08 13:59:00,
2013-05-08 09:04:00,68.6,45.5,30.04,SSW,196,3.0,6.0,44,-99.99,,,0.00,1-wire,2013-05-08 14:04:00,
2013-05-08 09:09:00,68.1,45.1,30.04,South,191,3.0,6.0,44,-99.99,,,0.00,1-wire,2013-05-08 14:09:00,
2013-05-08 09:14:00,68.9,45.3,30.04,South,191,4.0,8.0,43,-99.99,,,0.00,1-wire,2013-05-08 14:14:00,
2013-05-08 09:19:00,68.7,45.8,30.04,South,191,1.0,6.0,44,-99.99,,,0.00,1-wire,2013-05-08 14:19:00,
2013-05-08 09:24:00,69.1,45.4,30.04,South,188,2.0,6.0,42,-99.99,,,0.00,1-wire,2013-05-08 14:24:00,
2013-05-08 09:29:00,69.2,45.8,30.04,South,188,1.0,3.0,43,-99.99,,,0.00,1-wire,2013-05-08 14:29:00,
2013-05-08 09:34:00,69.8,46.3,30.04,South,188,1.0,3.0,43,-99.99,,,0.00,1-wire,2013-05-08 14:34:00,
2013-05-08 09:39:00,70.4,46.4,30.03,South,182,0.0,3.0,42,-99.99,,,0.00,1-wire,2013-05-08 14:39:00,
2013-05-08 09:44:00,70.8,47.7,30.03,South,182,0.0,0.0,44,-99.99,,,0.00,1-wire,2013-05-08 14:44:00,
2013-05-08 09:49:00,71.3,47.3,30.03,South,182,2.0,6.0,43,-99.99,,,0.00,1-wire,2013-05-08 14:49:00,
2013-05-08 09:54:00,71.9,48.4,30.03,South,178,2.0,6.0,43,-99.99,,,0.00,1-wire,2013-05-08 14:54:00,
2013-05-08 09:59:00,71.8,47.7,30.03,South,178,0.0,3.0,42,-99.99,,,0.00,1-wire,2013-05-08 14:59:00,
2013-05-08 10:04:00,72.5,47.3,30.04,South,178,0.0,0.0,41,-99.99,,,0.00,1-wire,2013-05-08 15:04:00,
2013-05-08 10:09:00,72.9,47.7,30.03,South,180,0.0,3.0,41,-99.99,,,0.00,1-wire,2013-05-08 15:09:00,
2013-05-08 10:14:00,73.1,46.3,30.04,South,180,0.0,0.0,39,-99.99,,,0.00,1-wire,2013-05-08 15:14:00,
2013-05-08 10:20:00,74.1,48.1,30.04,South,180,2.0,3.0,40,-99.99,,,0.00,1-wire,2013-05-08 15:20:00,
2013-05-08 10:25:00,74.0,49.3,30.04,South,177,2.0,6.0,42,-99.99,,,0.00,1-wire,2013-05-08 15:25:00,
2013-05-08 10:31:00,74.1,48.1,30.03,South,177,1.0,6.0,40,-99.99,,,0.00,1-wire,2013-05-08 15:31:00,
2013-05-08 10:36:00,74.1,47.2,30.03,SE,146,3.0,6.0,38,-99.99,,,0.00,1-wire,2013-05-08 15:36:00,
2013-05-08 10:41:00,74.8,49.0,30.03,SE,146,1.0,3.0,40,-99.99,,,0.00,1-wire,2013-05-08 15:41:00,
2013-05-08 10:46:00,75.3,48.8,30.04,SE,146,1.0,3.0,39,-99.99,,,0.00,1-wire,2013-05-08 15:46:00,
2013-05-08 10:51:00,75.8,48.0,30.03,South,179,0.0,3.0,37,-99.99,,,0.00,1-wire,2013-05-08 15:51:00,
2013-05-08 10:57:00,75.7,47.2,30.03,South,179,1.0,3.0,37,-99.99,,,0.00,1-wire,2013-05-08 15:57:00,
2013-05-08 11:02:00,76.4,46.9,30.03,South,179,0.0,3.0,35,-99.99,,,0.00,1-wire,2013-05-08 16:02:00,
2013-05-08 11:08:00,77.7,47.4,30.03,North,352,3.0,6.0,34,-99.99,,,0.00,1-wire,2013-05-08 16:08:00,
2013-05-08 11:13:00,78.2,48.1,30.03,North,352,3.0,6.0,35,-99.99,,,0.00,1-wire,2013-05-08 16:13:00,
2013-05-08 11:18:00,77.9,49.6,30.03,North,352,0.0,0.0,37,-99.99,,,0.00,1-wire,2013-05-08 16:18:00,
2013-05-08 11:23:00,77.8,47.4,30.03,NNW,344,1.0,3.0,34,-99.99,,,0.00,1-wire,2013-05-08 16:23:00,
2013-05-08 11:28:00,78.7,46.5,30.03,NNW,344,2.0,6.0,32,-99.99,,,0.00,1-wire,2013-05-08 16:28:00,
2013-05-08 11:33:00,78.0,47.0,30.03,NNW,344,2.0,3.0,34,-99.99,,,0.00,1-wire,2013-05-08 16:33:00,
2013-05-08 11:38:00,79.0,44.8,30.03,North,354,4.0,6.0,30,-99.99,,,0.00,1-wire,2013-05-08 16:38:00,
2013-05-08 11:43:00,78.9,46.6,30.03,North,354,2.0,3.0,32,-99.99,,,0.00,1-wire,2013-05-08 16:43:00,
2013-05-08 11:48:00,79.6,44.2,30.03,North,354,3.0,6.0,29,-99.99,,,0.00,1-wire,2013-05-08 16:48:00,
2013-05-08 11:53:00,79.3,46.4,30.03,North,358,2.0,6.0,31,-99.99,,,0.00,1-wire,2013-05-08 16:53:00,
2013-05-08 11:58:00,79.8,44.6,30.03,North,358,2.0,6.0,29,-99.99,,,0.00,1-wire,2013-05-08 16:58:00,
2013-05-08 12:03:00,78.5,43.6,30.02,North,358,2.0,6.0,29,-99.99,,,0.00,1-wire,2013-05-08 17:03:00,
2013-05-08 12:08:00,79.0,46.0,30.02,NNW,341,0.0,3.0,31,-99.99,,,0.00,1-wire,2013-05-08 17:08:00,
2013-05-08 12:13:00,79.5,45.9,30.02,NNW,341,2.0,3.0,31,-99.99,,,0.00,1-wire,2013-05-08 17:13:00,
2013-05-08 12:18:00,79.4,48.1,30.01,NNW,341,0.0,3.0,33,-99.99,,,0.00,1-wire,2013-05-08 17:18:00,
2013-05-08 12:23:00,78.3,45.7,30.01,NNE,30,1.0,3.0,32,-99.99,,,0.00,1-wire,2013-05-08 17:23:00,
2013-05-08 12:28:00,77.0,44.6,30.01,NNE,30,4.0,9.0,32,-99.99,,,0.00,1-wire,2013-05-08 17:28:00,
2013-05-08 12:33:00,76.2,45.3,30.01,NNE,30,1.0,3.0,33,-99.99,,,0.00,1-wire,2013-05-08 17:33:00,
2013-05-08 12:38:00,76.4,47.1,30.01,NE,47,1.0,3.0,36,-99.99,,,0.00,1-wire,2013-05-08 17:38:00,
2013-05-08 12:43:00,76.7,47.5,30.01,NE,47,0.0,3.0,36,-99.99,,,0.00,1-wire,2013-05-08 17:43:00,
2013-05-08 12:48:00,76.2,45.9,30.01,NE,47,0.0,3.0,34,-99.99,,,0.00,1-wire,2013-05-08 17:48:00,
2013-05-08 12:53:00,75.9,46.5,30.01,NNE,26,0.0,3.0,35,-99.99,,,0.00,1-wire,2013-05-08 17:53:00,
2013-05-08 12:58:00,76.1,46.1,30.01,NNE,26,0.0,3.0,35,-99.99,,,0.00,1-wire,2013-05-08 17:58:00,
2013-05-08 13:03:00,76.2,47.1,30.01,NNE,26,0.0,0.0,36,-99.99,,,0.00,1-wire,2013-05-08 18:03:00,
2013-05-08 13:08:00,76.2,46.1,30.01,NNE,26,0.0,3.0,34,-99.99,,,0.00,1-wire,2013-05-08 18:08:00,
2013-05-08 13:13:00,76.6,45.3,30.01,NNE,26,0.0,0.0,33,-99.99,,,0.00,1-wire,2013-05-08 18:13:00,
2013-05-08 13:18:00,77.0,44.2,30.00,NNE,26,1.0,3.0,31,-99.99,,,0.00,1-wire,2013-05-08 18:18:00,
2013-05-08 13:23:00,76.9,43.1,30.00,NNE,32,1.0,3.0,30,-99.99,,,0.00,1-wire,2013-05-08 18:23:00,
2013-05-08 13:28:00,77.2,44.4,30.00,NNE,32,0.0,3.0,31,-99.99,,,0.00,1-wire,2013-05-08 18:28:00,
2013-05-08 13:34:00,77.0,42.8,30.00,NNE,32,2.0,3.0,30,-99.99,,,0.00,1-wire,2013-05-08 18:34:00,
2013-05-08 13:39:00,77.1,42.1,30.00,NE,38,1.0,3.0,29,-99.99,,,0.00,1-wire,2013-05-08 18:39:00,
2013-05-08 13:44:00,77.4,43.0,30.00,NE,38,1.0,6.0,29,-99.99,,,0.00,1-wire,2013-05-08 18:44:00,
2013-05-08 13:49:00,77.7,41.5,30.00,NE,38,4.0,8.0,27,-99.99,,,0.00,1-wire,2013-05-08 18:49:00,
2013-05-08 13:54:00,77.3,41.0,30.00,NNE,20,1.0,3.0,27,-99.99,,,0.00,1-wire,2013-05-08 18:54:00,
2013-05-08 13:59:00,77.5,42.2,30.00,NNE,20,0.0,3.0,28,-99.99,,,0.00,1-wire,2013-05-08 18:59:00,
2013-05-08 14:04:00,77.4,41.6,30.00,NNE,20,0.0,0.0,28,-99.99,,,0.00,1-wire,2013-05-08 19:04:00,
2013-05-08 14:09:00,77.8,41.9,30.00,East,83,0.0,0.0,28,-99.99,,,0.00,1-wire,2013-05-08 19:09:00,
2013-05-08 14:14:00,78.6,42.6,30.00,East,83,1.0,3.0,28,-99.99,,,0.00,1-wire,2013-05-08 19:14:00,
2013-05-08 14:19:00,77.7,41.2,30.00,East,83,1.0,3.0,27,-99.99,,,0.00,1-wire,2013-05-08 19:19:00,
2013-05-08 14:24:00,77.9,41.7,30.00,NW,308,0.0,3.0,28,-99.99,,,0.00,1-wire,2013-05-08 19:24:00,
2013-05-08 14:30:00,77.7,43.5,29.99,NW,308,0.0,0.0,30,-99.99,,,0.00,1-wire,2013-05-08 19:30:00,
2013-05-08 14:35:00,78.4,46.8,29.99,NW,308,0.0,0.0,33,-99.99,,,0.00,1-wire,2013-05-08 19:35:00,
2013-05-08 14:41:00,78.9,41.9,29.99,NNW,336,1.0,3.0,27,-99.99,,,0.00,1-wire,2013-05-08 19:41:00,
2013-05-08 14:46:00,79.7,42.2,29.99,NNW,336,1.0,3.0,26,-99.99,,,0.00,1-wire,2013-05-08 19:46:00,
2013-05-08 14:52:00,80.1,42.2,29.99,North,349,1.0,3.0,26,-99.99,,,0.00,1-wire,2013-05-08 19:52:00,
2013-05-08 14:57:00,79.5,44.0,29.99,North,349,2.0,6.0,28,-99.99,,,0.00,1-wire,2013-05-08 19:57:00,
2013-05-08 15:02:00,79.4,43.2,29.99,North,349,1.0,3.0,28,-99.99,,,0.00,1-wire,2013-05-08 20:02:00,
2013-05-08 15:07:00,78.1,41.6,29.99,WSW,245,3.0,6.0,27,-99.99,,,0.00,1-wire,2013-05-08 20:07:00,
2013-05-08 15:12:00,79.0,43.9,29.99,WSW,245,1.0,6.0,29,-99.99,,,0.00,1-wire,2013-05-08 20:12:00,
2013-05-08 15:17:00,80.8,42.8,29.98,WSW,245,1.0,3.0,26,-99.99,,,0.00,1-wire,2013-05-08 20:17:00,
2013-05-08 15:22:00,80.7,43.3,29.98,NNW,335,1.0,6.0,27,-99.99,,,0.00,1-wire,2013-05-08 20:22:00,
2013-05-08 15:27:00,80.9,42.2,29.98,NNW,335,2.0,3.0,25,-99.99,,,0.00,1-wire,2013-05-08 20:27:00,
2013-05-08 15:32:00,81.1,44.8,29.98,NNW,335,1.0,3.0,28,-99.99,,,0.00,1-wire,2013-05-08 20:32:00,
2013-05-08 15:37:00,80.0,43.4,29.98,North,354,1.0,3.0,27,-99.99,,,0.00,1-wire,2013-05-08 20:37:00,
2013-05-08 15:42:00,78.5,42.0,29.98,North,354,2.0,6.0,27,-99.99,,,0.00,1-wire,2013-05-08 20:42:00,
2013-05-08 15:47:00,78.7,42.0,29.98,North,354,0.0,3.0,27,-99.99,,,0.00,1-wire,2013-05-08 20:47:00,
2013-05-08 15:52:00,79.3,41.6,29.97,North,359,0.0,3.0,26,-99.99,,,0.00,1-wire,2013-05-08 20:52:00,
2013-05-08 15:57:00,79.8,41.7,29.97,North,359,0.0,0.0,26,-99.99,,,0.00,1-wire,2013-05-08 20:57:00,
2013-05-08 16:02:00,79.6,41.0,29.97,North,359,1.0,6.0,25,-99.99,,,0.00,1-wire,2013-05-08 21:02:00,
2013-05-08 16:07:00,79.9,41.4,29.97,WSW,252,2.0,3.0,25,-99.99,,,0.00,1-wire,2013-05-08 21:07:00,
2013-05-08 16:12:00,79.6,44.2,29.97,WSW,252,2.0,6.0,29,-99.99,,,0.00,1-wire,2013-05-08 21:12:00,
2013-05-08 16:17:00,79.8,42.3,29.97,WSW,252,0.0,3.0,26,-99.99,,,0.00,1-wire,2013-05-08 21:17:00,
2013-05-08 16:22:00,79.9,42.8,29.97,WNW,303,0.0,0.0,27,-99.99,,,0.00,1-wire,2013-05-08 21:22:00,
2013-05-08 16:27:00,79.6,42.7,29.97,WNW,303,1.0,3.0,27,-99.99,,,0.00,1-wire,2013-05-08 21:27:00,
2013-05-08 16:32:00,79.7,41.4,29.97,WNW,303,0.0,3.0,26,-99.99,,,0.00,1-wire,2013-05-08 21:32:00,
2013-05-08 16:37:00,80.6,42.0,29.97,NNW,331,1.0,3.0,25,-99.99,,,0.00,1-wire,2013-05-08 21:37:00,
2013-05-08 16:42:00,80.3,42.3,29.97,NNW,331,2.0,4.0,26,-99.99,,,0.00,1-wire,2013-05-08 21:42:00,
2013-05-08 16:47:00,79.7,43.6,29.97,NNW,331,1.0,3.0,28,-99.99,,,0.00,1-wire,2013-05-08 21:47:00,
2013-05-08 16:52:00,79.6,43.2,29.97,NNW,336,1.0,3.0,27,-99.99,,,0.00,1-wire,2013-05-08 21:52:00,
2013-05-08 16:57:00,78.9,43.5,29.97,NNW,336,1.0,3.0,29,-99.99,,,0.00,1-wire,2013-05-08 21:57:00,
2013-05-08 17:02:00,79.6,43.3,29.97,NNW,336,1.0,3.0,28,-99.99,,,0.00,1-wire,2013-05-08 22:02:00,
2013-05-08 17:07:00,80.7,41.9,29.97,NNE,15,3.0,6.0,25,-99.99,,,0.00,1-wire,2013-05-08 22:07:00,
2013-05-08 17:12:00,80.6,41.9,29.97,NNE,15,2.0,6.0,25,-99.99,,,0.00,1-wire,2013-05-08 22:12:00,
2013-05-08 17:17:00,80.3,44.5,29.97,NNE,15,2.0,3.0,28,-99.99,,,0.00,1-wire,2013-05-08 22:17:00,
2013-05-08 17:22:00,80.5,42.5,29.97,NNW,341,0.0,3.0,26,-99.99,,,0.00,1-wire,2013-05-08 22:22:00,
2013-05-08 17:27:00,80.3,40.9,29.97,NNW,341,0.0,3.0,25,-99.99,,,0.00,1-wire,2013-05-08 22:27:00,
2013-05-08 17:32:00,80.1,40.1,29.97,NNW,341,3.0,6.0,24,-99.99,,,0.00,1-wire,2013-05-08 22:32:00,
2013-05-08 17:37:00,80.1,44.1,29.96,NNW,334,0.0,0.0,28,-99.99,,,0.00,1-wire,2013-05-08 22:37:00,
2013-05-08 17:43:00,80.0,41.8,29.96,NNW,334,2.0,3.0,26,-99.99,,,0.00,1-wire,2013-05-08 22:43:00,
2013-05-08 17:49:00,79.3,41.9,29.96,NNW,334,0.0,3.0,27,-99.99,,,0.00,1-wire,2013-05-08 22:49:00,
2013-05-08 17:54:00,78.5,41.0,29.96,North,2,0.0,3.0,26,-99.99,,,0.00,1-wire,2013-05-08 22:54:00,
2013-05-08 18:00:00,78.2,41.9,29.96,North,2,1.0,3.0,27,-99.99,,,0.00,1-wire,2013-05-08 23:00:00,
2013-05-08 18:05:00,78.1,41.9,29.96,North,2,0.0,3.0,28,-99.99,,,0.00,1-wire,2013-05-08 23:05:00,
2013-05-08 18:11:00,77.9,42.7,29.96,SSW,195,1.0,3.0,29,-99.99,,,0.00,1-wire,2013-05-08 23:11:00,
2013-05-08 18:16:00,77.5,41.9,29.96,SSW,195,1.0,6.0,28,-99.99,,,0.00,1-wire,2013-05-08 23:16:00,
2013-05-08 18:21:00,77.5,42.0,29.96,SSW,198,0.0,0.0,28,-99.99,,,0.00,1-wire,2013-05-08 23:21:00,
2013-05-08 18:26:00,77.6,41.3,29.96,SSW,198,0.0,0.0,27,-99.99,,,0.00,1-wire,2013-05-08 23:26:00,
2013-05-08 18:31:00,77.8,44.7,29.96,SSW,198,0.0,0.0,31,-99.99,,,0.00,1-wire,2013-05-08 23:31:00,
2013-05-08 18:37:00,77.9,42.0,29.96,SSW,192,1.0,3.0,28,-99.99,,,0.00,1-wire,2013-05-08 23:37:00,
2013-05-08 18:42:00,77.8,43.3,29.96,SSW,192,0.0,0.0,29,-99.99,,,0.00,1-wire,2013-05-08 23:42:00,
2013-05-08 18:47:00,77.2,42.4,29.96,SSW,192,0.0,0.0,29,-99.99,,,0.00,1-wire,2013-05-08 23:47:00,
2013-05-08 18:52:00,77.0,43.0,29.96,South,188,0.0,3.0,30,-99.99,,,0.00,1-wire,2013-05-08 23:52:00,
2013-05-08 18:57:00,77.0,43.9,29.96,South,188,0.0,0.0,31,-99.99,,,0.00,1-wire,2013-05-08 23:57:00,
2013-05-08 19:02:00,76.5,43.0,29.96,South,188,0.0,0.0,30,-99.99,,,0.00,1-wire,2013-05-09 00:02:00,
2013-05-08 19:07:00,76.3,44.3,29.96,SW,222,0.0,0.0,32,-99.99,,,0.00,1-wire,2013-05-09 00:07:00,
2013-05-08 19:12:00,76.0,44.6,29.96,SW,222,0.0,0.0,33,-99.99,,,0.00,1-wire,2013-05-09 00:12:00,
2013-05-08 19:17:00,76.0,46.2,29.96,SW,222,0.0,0.0,35,-99.99,,,0.00,1-wire,2013-05-09 00:17:00,
2013-05-08 19:22:00,75.6,46.3,29.96,SW,231,0.0,0.0,35,-99.99,,,0.00,1-wire,2013-05-09 00:22:00,
2013-05-08 19:27:00,75.1,46.6,29.96,SW,231,0.0,0.0,36,-99.99,,,0.00,1-wire,2013-05-09 00:27:00,
2013-05-08 19:32:00,74.4,46.9,29.97,SW,231,0.0,0.0,38,-99.99,,,0.00,1-wire,2013-05-09 00:32:00,
2013-05-08 19:37:00,73.7,47.4,29.97,SSW,200,0.0,0.0,39,-99.99,,,0.00,1-wire,2013-05-09 00:37:00,
2013-05-08 19:42:00,73.5,46.7,29.97,SSW,200,0.0,0.0,38,-99.99,,,0.00,1-wire,2013-05-09 00:42:00,
2013-05-08 19:47:00,73.0,47.3,29.97,SSW,200,0.0,0.0,40,-99.99,,,0.00,1-wire,2013-05-09 00:47:00,
2013-05-08 19:52:00,72.5,47.3,29.97,SW,222,0.0,0.0,41,-99.99,,,0.00,1-wire,2013-05-09 00:52:00,
2013-05-08 19:57:00,72.5,47.8,29.97,SW,222,0.0,0.0,42,-99.99,,,0.00,1-wire,2013-05-09 00:57:00,
2013-05-08 20:02:00,71.9,47.8,29.97,SW,222,0.0,0.0,42,-99.99,,,0.00,1-wire,2013-05-09 01:02:00,
2013-05-08 20:07:00,71.3,47.7,29.97,SSW,206,0.0,0.0,43,-99.99,,,0.00,1-wire,2013-05-09 01:07:00,
2013-05-08 20:12:00,71.1,47.8,29.97,SSW,206,0.0,0.0,43,-99.99,,,0.00,1-wire,2013-05-09 01:12:00,
2013-05-08 20:17:00,70.7,47.9,29.97,SSW,206,0.0,0.0,44,-99.99,,,0.00,1-wire,2013-05-09 01:17:00,
2013-05-08 20:22:00,70.4,47.9,29.97,West,262,0.0,0.0,45,-99.99,,,0.00,1-wire,2013-05-09 01:22:00,
2013-05-08 20:27:00,70.1,47.8,29.97,West,262,0.0,0.0,45,-99.99,,,0.00,1-wire,2013-05-09 01:27:00,
2013-05-08 20:33:00,69.9,48.0,29.97,West,262,0.0,0.0,46,-99.99,,,0.00,1-wire,2013-05-09 01:33:00,
2013-05-08 20:38:00,69.9,48.0,29.97,WSW,255,0.0,0.0,46,-99.99,,,0.00,1-wire,2013-05-09 01:38:00,
2013-05-08 20:44:00,69.5,49.6,29.97,WSW,255,0.0,0.0,49,-99.99,,,0.00,1-wire,2013-05-09 01:44:00,
2013-05-08 20:49:00,68.9,49.2,29.97,WSW,255,0.0,0.0,49,-99.99,,,0.00,1-wire,2013-05-09 01:49:00,
2013-05-08 20:54:00,68.9,49.0,29.97,WSW,256,0.0,0.0,49,-99.99,,,0.00,1-wire,2013-05-09 01:54:00,
2013-05-08 21:00:00,68.5,48.8,29.97,WSW,256,0.0,0.0,49,-99.99,,,0.00,1-wire,2013-05-09 02:00:00,
2013-05-08 21:05:00,68.3,49.0,29.98,WSW,256,0.0,0.0,50,-99.99,,,0.00,1-wire,2013-05-09 02:05:00,
2013-05-08 21:11:00,67.9,49.0,29.98,NNW,331,0.0,0.0,51,-99.99,,,0.00,1-wire,2013-05-09 02:11:00,
2013-05-08 21:17:00,67.7,49.1,29.98,NNW,331,0.0,0.0,51,-99.99,,,0.00,1-wire,2013-05-09 02:17:00,
2013-05-08 21:22:00,67.3,49.7,29.98,NNW,330,0.0,0.0,53,-99.99,,,0.00,1-wire,2013-05-09 02:22:00,
2013-05-08 21:28:00,66.9,50.0,29.98,NNW,330,0.0,0.0,55,-99.99,,,0.00,1-wire,2013-05-09 02:28:00,
2013-05-08 21:33:00,67.0,49.8,29.98,NNW,330,0.0,0.0,54,-99.99,,,0.00,1-wire,2013-05-09 02:33:00,
2013-05-08 21:38:00,67.3,50.2,29.98,NNW,330,0.0,0.0,54,-99.99,,,0.00,1-wire,2013-05-09 02:38:00,
2013-05-08 21:44:00,66.8,49.6,29.98,NNW,330,0.0,0.0,54,-99.99,,,0.00,1-wire,2013-05-09 02:44:00,
2013-05-08 21:49:00,66.5,49.6,29.98,NNW,330,0.0,0.0,55,-99.99,,,0.00,1-wire,2013-05-09 02:49:00,
2013-05-08 21:55:00,66.1,49.8,29.98,NNW,330,0.0,0.0,56,-99.99,,,0.00,1-wire,2013-05-09 02:55:00,
2013-05-08 22:00:00,65.9,49.5,29.98,NNW,330,0.0,0.0,55,-99.99,,,0.00,1-wire,2013-05-09 03:00:00,
2013-05-08 22:05:00,65.6,49.5,29.98,NNW,330,0.0,0.0,56,-99.99,,,0.00,1-wire,2013-05-09 03:05:00,
2013-05-08 22:10:00,65.6,49.4,29.98,NNW,330,0.0,0.0,56,-99.99,,,0.00,1-wire,2013-05-09 03:10:00,
2013-05-08 22:15:00,65.4,49.2,29.97,NNW,330,0.0,0.0,56,-99.99,,,0.00,1-wire,2013-05-09 03:15:00,
2013-05-08 22:21:00,65.2,49.6,29.97,NNW,330,0.0,0.0,57,-99.99,,,0.00,1-wire,2013-05-09 03:21:00,
2013-05-08 22:26:00,64.9,49.7,29.97,NNW,330,0.0,0.0,58,-99.99,,,0.00,1-wire,2013-05-09 03:26:00,
2013-05-08 22:32:00,64.8,49.5,29.97,NNW,330,0.0,0.0,58,-99.99,,,0.00,1-wire,2013-05-09 03:32:00,
2013-05-08 22:37:00,64.9,49.5,29.97,NNE,21,0.0,0.0,57,-99.99,,,0.00,1-wire,2013-05-09 03:37:00,
2013-05-08 22:42:00,64.8,49.5,29.97,NNE,21,0.0,0.0,58,-99.99,,,0.00,1-wire,2013-05-09 03:42:00,
2013-05-08 22:47:00,64.6,49.5,29.97,NNE,21,0.0,0.0,58,-99.99,,,0.00,1-wire,2013-05-09 03:47:00,
2013-05-08 22:52:00,64.2,49.3,29.97,NNE,15,0.0,0.0,58,-99.99,,,0.00,1-wire,2013-05-09 03:52:00,
2013-05-08 22:57:00,63.3,49.3,29.97,NNE,15,0.0,0.0,60,-99.99,,,0.00,1-wire,2013-05-09 03:57:00,
2013-05-08 23:01:00,62.9,48.6,29.97,NNE,15,0.0,0.0,59,-99.99,,,0.00,1-wire,2013-05-09 04:01:00,
2013-05-08 23:03:00,63.2,49.2,29.97,NNE,15,0.0,3.0,60,-99.99,,,0.00,1-wire,2013-05-09 04:03:00,
2013-05-08 23:04:00,63.3,49.9,29.97,NNE,15,1.0,3.0,62,-99.99,,,0.00,1-wire,2013-05-09 04:04:00,
2013-05-08 23:05:00,63.5,50.2,29.97,NNE,15,0.0,0.0,62,-99.99,,,0.00,1-wire,2013-05-09 04:05:00,
2013-05-08 23:10:00,63.3,50.0,29.98,NNE,30,0.0,0.0,62,-99.99,,,0.00,1-wire,2013-05-09 04:10:00,
2013-05-08 23:11:00,63.4,49.6,29.97,NNE,30,0.0,0.0,61,-99.99,,,0.00,1-wire,2013-05-09 04:11:00,
2013-05-08 23:16:00,63.7,49.6,29.97,NNE,30,0.0,0.0,60,-99.99,,,0.00,1-wire,2013-05-09 04:16:00,
2013-05-08 23:21:00,63.7,49.8,29.97,NNW,330,1.0,3.0,60,-99.99,,,0.00,1-wire,2013-05-09 04:21:00,
2013-05-08 23:26:00,63.8,50.3,29.97,NNW,330,0.0,0.0,62,-99.99,,,0.00,1-wire,2013-05-09 04:26:00,
2013-05-08 23:31:00,64.2,50.1,29.97,NNW,330,0.0,0.0,60,-99.99,,,0.00,1-wire,2013-05-09 04:31:00,
2013-05-08 23:36:00,64.5,50.4,29.97,NW,306,0.0,0.0,60,-99.99,,,0.00,1-wire,2013-05-09 04:36:00,
2013-05-08 23:41:00,64.2,50.9,29.97,NW,306,0.0,0.0,62,-99.99,,,0.00,1-wire,2013-05-09 04:41:00,
2013-05-08 23:46:00,64.1,50.9,29.97,NW,306,0.0,0.0,62,-99.99,,,0.00,1-wire,2013-05-09 04:46:00,
2013-05-08 23:51:00,63.8,50.8,29.97,West,279,0.0,0.0,63,-99.99,,,0.00,1-wire,2013-05-09 04:51:00,
2013-05-08 23:56:00,63.9,50.1,29.97,West,279,0.0,3.0,61,-99.99,,,0.00,1-wire,2013-05-09 04:56:00,